STARLINK-5473 (55663 NORAD) Tracking and Keplerian Element Data

This shows tracking and keplerian element data for the satellite.

Feedback or suggestion? Click here.




ElementValue
Catalog55663
NameSTARLINK-5473
Epoch Orbit130
Epoch Day62.91667824
Epoch Year2023
RAAN110.184
Inclination70
Eccentricity0.0003516
Argument of Perigee266.2107
Mean Anonmoly342.7549
Mean Motion15.7523806
Decay Rate-0.00973017
L11 55663U 23021AM 23062.91667824 -.00973017 00000+0 -72337-2 0 9991
L22 55663 70.0000 110.1840 0003516 266.2107 342.7549 15.75238060 1303



Live tracking and technical data element details for STARLINK-5473 (NORAD 55663). STARLINK-5473 can be tracked NOW for your location showing map with azimuth and elevation plus other details from your city location.







IsCatalogInMostPopularTable: catalog: 55663, numindb: 2
Update: records affected: 1



GetName: 55663 STARLINK-5473

Hit Count: updated at: Wed, 22 Mar 2023 17:04:40 GMT